User: anonymous   Login
Location: Unspecified
(0.0000°N, 0.0000°E)
Time: 09:46:35
(UTC+00:00)
Language:

Meteor 3-4 - Orbit

View from above orbital plane
View from above orbital plane
View from above satellite
View from above satellite

Ground track
Ground track

The orbit data is extracted from the following two-line orbital elements,

1 21232U 91030A   18175.87734764 -.00000142 +00000-0 -40419-3 0  9991
2 21232 082.5440 085.6413 0011844 235.9593 190.7456 13.16626773305660
Epoch (UTC): 24 June 2018 21:03:22
Eccentricity: 0.0011844
inclination: 82.5440°
perigee height: 1188 km
apogee height: 1206 km
right ascension of ascending node: 85.6413°
argument of perigee: 235.9593°
revolutions per day: 13.16626773
mean anomaly at epoch: 190.7456°
orbit number at epoch: 30566

The dashed part of the orbit path shows where the satellite is in the earth's shadow,  

DLR